Date String (YYYY-MM-DD hh:mm:ss) UTC,Instrument flags,Ambient pressure (hPa),Sample flow (lpm),Bypass flow (lpm),Sample temperature (°C),Ambient temperature (°C),ASC tube jacket temperature (°C),LED temperature (°C),Box temperature (°C),Sample RH (%),Span deviation,Mass concentration (μg/m³),Mass concentration (μg/m³),Mass concentration (μg/m³)
DateTimeUTC,F1_M11,P_M11,Q1_M11,Q2_M11,T1_M11,T2_M11,T3_M11,T4_M11,T5_M11,U1_M11,ZSPAN_M11,X0_M11,X2_M11,X1_M11
2022-11-27 22:00:00,,0816.9,5.01,0.00,24.9,23.5,00.0,33.9,26.8,09.9,0000.0,0003.09,0002.13,0001.88
2022-11-27 22:01:00,,0816.9,5.00,0.00,24.9,23.5,00.0,33.9,26.8,10.3,0000.0,0003.03,0002.25,0002.00
2022-11-27 22:02:00,,0817.0,4.99,0.00,24.9,23.5,00.0,33.9,26.8,10.8,0000.0,0004.18,0002.41,0002.14
2022-11-27 22:03:00,,0817.0,5.01,0.00,24.9,23.5,00.0,33.9,26.8,11.3,0000.0,0004.46,0002.62,0002.34
2022-11-27 22:04:00,,0816.9,5.00,0.00,24.9,23.5,00.0,33.9,26.8,11.0,0000.0,0005.53,0002.82,0002.54
2022-11-27 22:05:00,,0817.0,4.99,0.00,24.9,23.4,00.0,33.9,26.8,11.2,0000.0,0006.10,0003.05,0002.77
2022-11-27 22:06:00,,0817.0,5.01,0.00,24.9,23.4,00.0,33.9,26.8,11.3,0000.0,0006.57,0003.22,0003.01
2022-11-27 22:07:00,,0817.0,5.01,0.00,24.9,23.5,00.0,33.9,26.8,11.3,0000.0,0006.76,0003.32,0003.15
2022-11-27 22:08:00,,0817.0,5.01,0.00,24.9,23.5,00.0,33.9,26.8,11.1,0000.0,0006.94,0003.42,0003.25
2022-11-27 22:09:00,,0817.0,5.00,0.00,24.9,23.6,00.0,33.9,26.8,11.0,0000.0,0007.19,0003.53,0003.35
2022-11-27 22:10:00,,0817.1,4.99,0.00,24.9,23.6,00.0,33.9,26.9,10.8,0000.0,0007.53,0003.61,0003.42
2022-11-27 22:11:00,,0817.0,5.02,0.00,25.0,23.7,00.0,33.9,26.9,11.4,0000.0,0007.71,0003.68,0003.50
2022-11-27 22:12:00,,0817.1,5.01,0.00,25.0,23.7,00.0,33.9,26.9,11.5,0000.0,0008.38,0003.76,0003.56
2022-11-27 22:13:00,,0817.0,5.00,0.00,25.0,23.7,00.0,33.9,26.9,09.5,0000.0,0007.94,0003.77,0003.56
2022-11-27 22:14:00,,0817.0,5.00,0.00,25.0,23.7,00.0,33.9,26.9,07.8,0000.0,0007.65,0003.62,0003.43
2022-11-27 22:15:00,,0817.0,5.00,0.00,25.0,23.8,00.0,33.9,26.9,07.7,0000.0,0006.81,0003.45,0003.27
2022-11-27 22:16:00,,0816.5,4.99,0.00,25.0,23.8,00.0,33.9,27.0,07.9,0000.0,0006.32,0003.28,0003.09
2022-11-27 22:17:00,,0816.2,4.99,0.00,25.0,23.8,00.0,33.9,27.0,07.8,0000.0,0006.00,0003.12,0002.80
2022-11-27 22:18:00,,0816.1,5.00,0.00,25.0,23.7,00.0,33.9,26.9,07.7,0000.0,0005.81,0002.88,0002.52
2022-11-27 22:19:00,,0816.1,5.00,0.00,25.0,23.7,00.0,33.9,26.9,07.8,0000.0,0005.48,0002.58,0002.24
2022-11-27 22:20:00,,0816.1,4.99,0.00,25.0,23.6,00.0,33.9,26.9,07.4,0000.0,0005.06,0002.28,0001.95
2022-11-27 22:21:00,,0816.1,5.02,0.00,25.0,23.6,00.0,33.9,26.9,07.3,0000.0,0005.32,0002.02,0001.71
2022-11-27 22:22:00,,0816.0,4.99,0.00,25.0,23.5,00.0,33.9,26.9,07.2,0000.0,0005.11,0001.72,0001.42
2022-11-27 22:23:00,,0816.0,4.99,0.00,25.0,23.5,00.0,33.9,26.9,07.5,0000.0,0004.82,0001.34,0001.09
2022-11-27 22:24:00,,0816.1,4.99,0.00,25.0,23.5,00.0,33.9,26.8,07.4,0000.0,0004.75,0001.13,0000.86
2022-11-27 22:25:00,,0816.2,5.00,0.00,25.0,23.4,00.0,33.9,26.8,07.4,0000.0,0004.81,0001.14,0000.82
2022-11-27 22:26:00,,0816.4,5.00,0.00,24.9,23.3,00.0,33.9,26.7,07.4,0000.0,0005.65,0001.17,0000.82
2022-11-27 22:27:00,,0816.5,4.99,0.00,24.9,23.3,00.0,33.9,26.7,07.4,0000.0,0006.04,0001.17,0000.82
2022-11-27 22:28:00,,0816.5,4.99,0.00,24.9,23.3,00.0,33.8,26.7,07.5,0000.0,0006.52,0001.13,0000.81
2022-11-27 22:29:00,,0816.5,5.01,0.00,24.9,23.2,00.0,33.8,26.7,07.4,0000.0,0006.42,0001.07,0000.81
2022-11-27 22:30:00,,0816.4,5.00,0.00,24.8,23.2,00.0,33.8,26.6,07.7,0000.0,0007.24,0001.05,0000.80
2022-11-27 22:31:00,,0816.4,5.00,0.00,24.8,23.1,00.0,33.8,26.6,08.0,0000.0,0007.53,0001.02,0000.81
2022-11-27 22:32:00,,0816.4,5.01,0.00,24.7,23.1,00.0,33.8,26.5,08.0,0000.0,0007.11,0001.02,0000.81
2022-11-27 22:33:00,,0816.4,5.00,0.00,24.7,23.1,00.0,33.8,26.5,08.2,0000.0,0006.36,0001.00,0000.81
2022-11-27 22:34:00,,0816.4,5.01,0.00,24.7,23.0,00.0,33.8,26.5,08.3,0000.0,0005.63,0001.01,0000.82
2022-11-27 22:35:00,,0816.3,4.99,0.00,24.7,23.0,00.0,33.8,26.5,08.3,0000.0,0005.18,0000.99,0000.82
2022-11-27 22:36:00,,0816.3,5.01,0.00,24.7,23.0,00.0,33.7,26.5,08.5,0000.0,0005.25,0000.95,0000.83
2022-11-27 22:37:00,,0816.3,5.00,0.00,24.7,23.0,00.0,33.7,26.5,08.4,0000.0,0004.59,0000.91,0000.84
2022-11-27 22:38:00,,0816.3,5.00,0.00,24.6,23.0,00.0,33.7,26.4,08.5,0000.0,0003.81,0000.91,0000.84
2022-11-27 22:39:00,,0816.3,4.99,0.00,24.6,23.0,00.0,33.7,26.4,08.6,0000.0,0003.13,0000.92,0000.84
2022-11-27 22:40:00,,0816.4,5.00,0.00,24.6,23.0,00.0,33.7,26.4,08.6,0000.0,0002.95,0000.93,0000.85
2022-11-27 22:41:00,,0816.4,5.00,0.00,24.6,23.0,00.0,33.7,26.4,08.6,0000.0,0001.90,0000.93,0000.86
2022-11-27 22:42:00,,0816.3,5.00,0.00,24.6,23.0,00.0,33.7,26.3,08.5,0000.0,0001.58,0000.94,0000.86
2022-11-27 22:43:00,,0816.3,5.00,0.00,24.6,23.0,00.0,33.6,26.4,08.1,0000.0,0001.60,0000.93,0000.86
2022-11-27 22:44:00,,0816.3,5.00,0.00,24.6,23.0,00.0,33.6,26.3,08.3,0000.0,0001.54,0000.91,0000.85
2022-11-27 22:45:00,,0816.2,5.00,0.00,24.6,23.0,00.0,33.6,26.3,08.4,0000.0,0001.53,0000.90,0000.84
2022-11-27 22:46:00,,0816.0,5.00,0.00,24.6,23.0,00.0,33.6,26.3,08.3,0000.0,0001.32,0000.91,0000.84
2022-11-27 22:47:00,,0816.1,5.00,0.00,24.5,22.9,00.0,33.6,26.3,08.1,0000.0,0001.44,0000.92,0000.84
2022-11-27 22:48:00,,0816.0,5.01,0.00,24.5,22.9,00.0,33.6,26.3,08.1,0000.0,0002.53,0000.96,0000.83
2022-11-27 22:49:00,,0816.1,5.00,0.00,24.5,22.9,00.0,33.6,26.4,08.0,0000.0,0002.59,0000.98,0000.83
2022-11-27 22:50:00,,0816.1,4.98,0.00,24.5,22.9,00.0,33.5,26.3,08.0,0000.0,0002.79,0001.02,0000.82
2022-11-27 22:51:00,,0816.0,5.00,0.00,24.5,22.8,00.0,33.5,26.3,08.0,0000.0,0002.92,0001.06,0000.82
2022-11-27 22:52:00,,0816.0,5.02,0.00,24.5,22.8,00.0,33.5,26.3,08.2,0000.0,0002.97,0001.07,0000.81
2022-11-27 22:53:00,,0815.9,4.99,0.00,24.4,22.7,00.0,33.5,26.2,08.2,0000.0,0002.97,0001.07,0000.80
2022-11-27 22:54:00,,0815.9,5.00,0.00,24.4,22.7,00.0,33.5,26.2,07.9,0000.0,0003.96,0001.11,0000.80
2022-11-27 22:55:00,,0815.8,5.00,0.00,24.4,22.7,00.0,33.5,26.1,08.1,0000.0,0004.38,0001.14,0000.81
2022-11-27 22:56:00,,0815.6,5.02,0.00,24.4,22.6,00.0,33.4,26.2,08.2,0000.0,0004.51,0001.17,0000.81
2022-11-27 22:57:00,,0815.8,4.99,0.00,24.4,22.6,00.0,33.4,26.2,08.1,0000.0,0004.61,0001.20,0000.81
2022-11-27 22:58:00,,0815.9,5.01,0.00,24.3,22.6,00.0,33.4,26.2,08.1,0000.0,0004.62,0001.19,0000.80
2022-11-27 22:59:00,,0815.8,5.01,0.00,24.3,22.6,00.0,33.4,26.1,08.1,0000.0,0003.49,0001.19,0000.81
